EW3345 Weather Reports


time (UTC)temp
C
wind
direction
speed
KPH
gust
KPH
rain 1hr
cm
rain 24hr
cm
rain mn
cm
humidity
%
barometer
mb
20260508145216 14 68 1.6 3.2 0.00 0.00 0.00 35 1025.2
20260508144216 14 68 1.6 4.8 0.00 0.00 0.00 31 1025.2
20260508143236 14 23 3.2 9.7 0.00 0.00 0.00 28 1025.1
20260508142216 14 0 3.2 8.0 0.00 0.00 0.00 30 1025.3
20260508141216 14 90 4.8 8.0 0.00 0.00 0.00 32 1025.5
20260508140216 14 338 3.2 6.4 0.00 0.00 0.00 31 1025.2
20260508135216 15 113 3.2 6.4 0.00 0.00 0.00 27 1025.4
20260508134216 15 0 3.2 4.8 0.00 0.00 0.00 30 1025.4
20260508133215 15 90 4.8 12.9 0.00 0.00 0.00 30 1025.3
20260508132216 14 0 3.2 8.0 0.00 0.00 0.00 29 1025.3
20260508131215 15 45 4.8 14.5 0.00 0.00 0.00 32 1025.3
20260508130216 15 68 4.8 9.7 0.00 0.00 0.00 32 1025.4
20260508125216 15 68 4.8 8.0 0.00 0.00 0.00 30 1025.3
20260508124235 15 293 3.2 6.4 0.00 0.00 0.00 31 1025.3
20260508123235 15 113 4.8 11.3 0.00 0.00 0.00 30 1025.4
20260508122216 15 90 3.2 9.7 0.00 0.00 0.00 31 1025.3
20260508121216 15 113 6.4 12.9 0.00 0.00 0.00 32 1025.2
20260508120215 15 0 8.0 17.7 0.00 0.00 0.00 30 1025.3
20260508115217 15 45 3.2 6.4 0.00 0.00 0.00 30 1025.3
20260508114218 15 293 3.2 8.0 0.00 0.00 0.00 35 1025.2
20260508113217 15 113 3.2 6.4 0.00 0.00 0.00 33 1025.2
20260508112217 15 113 8.0 16.1 0.00 0.00 0.00 35 1025.2
20260508111217 15 0 1.6 4.8 0.00 0.00 0.00 37 1025.1
20260508110217 15 338 4.8 12.9 0.00 0.00 0.00 33 1025.1
20260508105217 14 270 6.4 11.3 0.00 0.00 0.00 40 1025.1
20260508104237 14 338 9.7 16.1 0.00 0.00 0.00 36 1025.1
20260508103217 14 315 6.4 11.3 0.00 0.00 0.00 39 1025.1
20260508102237 14 315 9.7 17.7 0.00 0.00 0.00 36 1025.0
20260508101217 14 90 4.8 11.3 0.00 0.00 0.00 35 1025.1
20260508100217 14 113 3.2 6.4 0.00 0.00 0.00 42 1025.1
20260508095217 14 90 6.4 17.7 0.00 0.00 0.00 45 1025.0
20260508094217 13 270 1.6 4.8 0.00 0.00 0.00 44 1025.0
20260508093217 13 203 1.6 8.0 0.00 0.00 0.00 46 1025.0
20260508092217 13 338 8.0 14.5 0.00 0.00 0.00 42 1025.1
20260508091337 14 315 4.8 17.7 0.00 0.00 0.00 42 1025.1
20260508090217 14 68 6.4 16.1 0.00 0.00 0.00 43 1025.1
20260508085217 13 45 6.4 14.5 0.00 0.00 0.00 42 1025.0
20260508084217 13 338 3.2 6.4 0.00 0.00 0.00 45 1025.1
20260508083217 13 315 1.6 4.8 0.00 0.00 0.00 41 1025.1
20260508082217 13 113 4.8 8.0 0.00 0.00 0.00 45 1024.9
20260508081217 13 113 3.2 4.8 0.00 0.00 0.00 44 1025.0
20260508080217 13 90 3.2 4.8 0.00 0.00 0.00 43 1025.0
20260508075217 13 293 3.2 6.4 0.00 0.00 0.00 45 1024.9
20260508074217 13 338 6.4 11.3 0.00 0.00 0.00 46 1024.9
20260508073217 12 293 3.2 6.4 0.00 0.00 0.00 48 1024.8
20260508072217 12 90 1.6 3.2 0.00 0.00 0.00 51 1024.8
20260508071217 12 90 3.2 6.4 0.00 0.00 0.00 51 1024.6
20260508070217 11 68 4.8 9.7 0.00 0.00 0.00 53 1024.6
20260508065217 10 0.0 1.6 0.00 0.00 0.00 57 1024.7
20260508064217 10 0 3.2 6.4 0.00 0.00 0.00 57 1024.7
20260508063216 10 68 3.2 6.4 0.00 0.00 0.00 57 1024.6
20260508062237 9 0 1.6 3.2 0.00 0.00 0.00 60 1024.5
20260508061217 8 293 1.6 4.8 0.00 0.00 0.00 59 1024.2
20260508060216 8 180 1.6 3.2 0.00 0.00 0.00 60 1024.3
20260508055217 8 0 1.6 3.2 0.00 0.00 0.00 63 1024.0
20260508054217 7 23 3.2 6.4 0.00 0.00 0.00 65 1023.9
20260508053217 7 90 1.6 3.2 0.00 0.00 0.00 69 1023.8
20260508052217 6 0.0 1.6 0.00 0.00 0.00 72 1023.7
20260508051216 5 0.0 1.6 0.00 0.00 0.00 75 1023.6
20260508050216 4 293 3.2 4.8 0.00 0.00 0.00 78 1023.5
20260508045216 3 293 3.2 4.8 0.00 0.00 0.00 81 1023.5
20260508044216 2 293 3.2 3.2 0.00 0.00 0.00 85 1023.2
20260508043216 2 270 1.6 3.2 0.00 0.00 0.00 91 1023.0
20260508042217 1 0.0 0.0 0.00 0.00 0.00 92 1022.9
20260508041237 0 0.0 0.0 0.00 0.00 0.00 92 1022.8
20260508040236 0 0.0 0.0 0.00 0.00 0.00 92 1022.8
20260508035216 0 0.0 0.0 0.00 0.00 0.00 92 1022.6
20260508034216 0 0.0 0.0 0.00 0.00 0.00 92 1022.5
20260508033236 0 0.0 0.0 0.00 0.00 0.00 92 1022.4
20260508032216 0 0.0 0.0 0.00 0.00 0.00 92 1022.4
20260508031216 -1 0.0 0.0 0.00 0.00 0.00 92 1022.3
20260508030216 -1 0.0 0.0 0.00 0.00 0.00 92 1022.2
20260508025216 -1 0.0 0.0 0.00 0.00 0.00 92 1022.1
20260508024236 -1 0.0 0.0 0.00 0.00 0.00 91 1022.1
20260508023216 -1 0.0 0.0 0.00 0.00 0.00 91 1021.8
20260508022216 0 0.0 0.0 0.00 0.00 0.00 92 1021.7
20260508021216 -1 0.0 0.0 0.00 0.00 0.00 92 1021.5
20260508020216 -1 0.0 0.0 0.00 0.00 0.00 91 1021.5
20260508015216 -1 0.0 0.0 0.00 0.00 0.00 91 1021.4
20260508014236 -1 0.0 0.0 0.00 0.00 0.00 91 1021.3
20260508013216 0 0.0 0.0 0.00 0.00 0.00 92 1021.2
20260508012216 -1 0.0 0.0 0.00 0.00 0.00 91 1021.2
20260508011216 0 0.0 0.0 0.00 0.00 0.00 91 1021.1
20260508010216 -1 0.0 0.0 0.00 0.00 0.00 91 1020.9
20260508005217 -1 0.0 0.0 0.00 0.00 0.00 90 1020.8
20260508004216 0 0.0 0.0 0.00 0.00 0.00 90 1020.7
20260508003216 0 0.0 0.0 0.00 0.00 0.00 90 1020.6
20260508002216 0 0.0 0.0 0.00 0.00 0.00 90 1020.7
20260508001216 0 0.0 0.0 0.00 0.00 0.00 90 1020.6
20260508000216 0 0.0 0.0 0.00 0.00 0.00 90 1020.5
20260507235216 1 315 1.6 1.6 0.00 0.00 0.00 90 1020.4
20260507234216 1 315 1.6 3.2 0.00 0.00 0.00 91 1020.2
20260507233216 0 0 1.6 3.2 0.00 0.00 0.00 90 1020.3
20260507232216 0 0.0 0.0 0.00 0.00 0.00 89 1020.1
20260507231216 0 0.0 0.0 0.00 0.00 0.00 90 1020.0
20260507230216 0 0.0 1.6 0.00 0.00 0.00 90 1020.1
20260507225216 0 113 3.2 4.8 0.00 0.00 0.00 89 1020.0
20260507224236 0 225 1.6 3.2 0.00 0.00 0.00 87 1019.9
20260507223216 1 225 1.6 3.2 0.00 0.00 0.00 87 1019.8
20260507222216 1 0.0 0.0 0.00 0.00 0.00 85 1019.7
20260507221215 2 0.0 1.6 0.00 0.00 0.00 88 1019.7
20260507220216 2 315 3.2 3.2 0.00 0.00 0.00 88 1019.5
20260507215216 2 338 3.2 3.2 0.00 0.00 0.00 87 1019.5
20260507214215 2 338 1.6 3.2 0.00 0.00 0.00 86 1019.4
20260507213216 2 23 1.6 3.2 0.00 0.00 0.00 85 1019.2
20260507212215 2 23 1.6 1.6 0.00 0.00 0.00 86 1018.9
20260507211216 2 0.0 0.0 0.00 0.00 0.00 85 1018.8
20260507210216 2 0.0 0.0 0.00 0.00 0.00 84 1018.6
20260507205216 3 0.0 0.0 0.00 0.00 0.00 83 1018.5
20260507204236 3 0.0 0.0 0.00 0.00 0.00 82 1018.4
20260507203216 3 0.0 0.0 0.00 0.00 0.00 81 1018.4
20260507202236 3 68 1.6 1.6 0.00 0.00 0.00 82 1018.3
20260507201216 3 0.0 0.0 0.00 0.00 0.00 81 1018.1
20260507200216 4 0.0 0.0 0.00 0.00 0.00 80 1017.9
20260507195216 4 0.0 0.0 0.00 0.00 0.00 79 1017.8
20260507194216 5 0.0 0.0 0.00 0.00 0.00 78 1017.7
20260507193216 5 0.0 0.0 0.00 0.00 0.00 77 1017.6
20260507192216 5 0.0 0.0 0.00 0.00 0.00 76 1017.6
20260507191216 5 0.0 1.6 0.00 0.00 0.00 75 1017.5
20260507190216 6 23 1.6 3.2 0.00 0.00 0.00 74 1017.4
20260507185236 6 0.0 0.0 0.00 0.00 0.00 74 1017.4
20260507184236 6 0.0 0.0 0.00 0.00 0.00 73 1017.3
20260507183236 7 0.0 1.6 0.00 0.00 0.00 71 1017.3
20260507182256 7 0.0 0.0 0.00 0.00 0.00 69 1017.2
20260507181216 8 0.0 0.0 0.00 0.00 0.00 68 1017.2
20260507180216 8 23 1.6 1.6 0.00 0.00 0.00 67 1017.1
20260507175216 8 0.0 1.6 0.00 0.00 0.00 67 1016.9
20260507174216 8 0.0 0.0 0.00 0.00 0.00 66 1016.7
20260507173216 8 0.0 1.6 0.00 0.00 0.00 66 1016.6
20260507172216 8 113 1.6 4.8 0.00 0.00 0.00 67 1016.3
20260507171216 8 113 8.0 11.3 0.00 0.00 0.00 65 1016.1
20260507170216 10 113 3.2 6.4 0.00 0.00 0.00 62 1016.2
20260507165215 10 68 1.6 3.2 0.00 0.00 0.00 62 1016.4
20260507164216 10 90 3.2 4.8 0.00 0.00 0.00 62 1016.2
20260507163216 10 45 3.2 6.4 0.00 0.00 0.00 61 1016.2
20260507162215 10 113 4.8 9.7 0.00 0.00 0.00 61 1016.1
20260507161216 10 113 4.8 12.9 0.00 0.00 0.00 62 1015.8
20260507160216 11 68 3.2 4.8 0.00 0.00 0.00 61 1015.8
20260507155215 11 113 3.2 6.4 0.00 0.00 0.00 61 1015.7
20260507154215 11 68 4.8 9.7 0.00 0.00 0.00 61 1015.7
20260507153215 11 158 4.8 14.5 0.00 0.00 0.00 62 1015.8
20260507152215 10 23 6.4 12.9 0.00 0.00 0.00 63 1015.7
20260507151216 10 113 12.9 22.5 0.00 0.00 0.00 63 1015.7
20260507150215 11 0 1.6 6.4 0.00 0.00 0.00 63 1015.7